Location: Unspecified
(0.0000°N, 0.0000°E)
Time: 04:08:12
(UTC+00:00)

GEESAT 6-07 - Pass Details

Date: 23 November 2025
Orbit: 598 x 616 km, 50.0° (Epoch: 07 December)

Event Time Altitude Azimuth Distance (km) Brightness Sun altitude
Rises 19:37:00 0° 325° (NW) 2,823 ? -25.7°
Reaches altitude 10° 19:39:17 10° 326° (NW) 1,922 ? -26.2°
Enters shadow 19:40:22 17° 327° (NNW) 1,503 ? -26.5°
